(158171) = 2001 QD231

Discovered at Anderson Mesa on 2001-08-24 by LONEOS.

Orbit

Orbit type: Main Belt

Note: WebGL enabled browser required.

epoch2024-03-31.0
epoch JD2460400.5
perihelion date2021-08-15.51871
perihelion JD2459442.01871
argument of perihelion (°)158.38508
ascending node (°)214.60589
inclination (°)6.56777
eccentricity0.1336415
perihelion distance (AU)1.9143690
Tisserand w.r.t. Jupiter3.6
ΔV w.r.t. Earth (km/sec)8.8
semimajor axis (AU)2.2096729
mean anomaly (°)287.60438
mean daily motion (°/day)0.30006260
aphelion distance (AU)2.505
period (years)3.28
P-vector [x]0.97303254
P-vector [y]0.19131367
P-vector [z]0.12886722
Q-vector [x]-0.22133245
Q-vector [y]0.93168990
Q-vector [z]0.28803797
absolute magnitude17.04
phase slope0.15
uncertainty0
referenceMPEC 2024-C181
observations used656
oppositions15
arc length (days)8975
first opposition used1998
last opposition used2023
residual rms (arc-secs)0.70
perturbers coarse indicatorM-v
perturbers precise indicator003Ek
first observation date used1998-10-14.0
last observation date used2023-05-11.0
computer nameMPCLINUX
JD of orbit computation2456966.879672
perihelion JD uncertainty (days)4.9114E-05
argument of perihelion uncertainty (°)3.5416E-05
ascending node uncertainty (°)3.1382E-05
inclination uncertainty (°)4.1796E-06
eccentricity uncertainty 3.9177E-08
perihelion distance uncertainty (AU)8.9445E-08
Minimum Orbit Intersection Distances (in AU)
for orbit epoch: 2460400.5, reference: E2024-CI1
Mercury1.56568
Venus1.19376
Earth0.91704
Mars0.4875
Jupiter2.95519
Saturn6.85462
Uranus15.9736
Neptune27.8698

Observations

721 total observations over interval: 1998 10 14.45736 – 2023 05 11.331331
These data are available for download (format description).

Date (UT) J2000 RA J2000 Dec Magn Location Ref
1998 10 14.45736 03 13 20.33 +17 43 06.9 20.0 V 691 – Steward Observatory, Kitt Peak-Spacewatch MPS 79890
1998 10 14.47938 03 13 19.58 +17 42 56.6 20.4 V 691 – Steward Observatory, Kitt Peak-Spacewatch MPS 79890
1998 10 14.50188 03 13 18.82 +17 42 46.7 20.0 V 691 – Steward Observatory, Kitt Peak-Spacewatch MPS 79890
1998 11 10.25762 02 51 20.11 +13 41 50.8 19.1   704 – Lincoln Laboratory ETS, New Mexico MPS 37861
1998 11 10.27676 02 51 19.04 +13 41 41.0   704 – Lincoln Laboratory ETS, New Mexico MPS 37861
1998 11 10.29583 02 51 17.82 +13 41 32.3   704 – Lincoln Laboratory ETS, New Mexico MPS 37861
1998 11 11.18748 02 50 28.49 +13 33 09.4 19.0   704 – Lincoln Laboratory ETS, New Mexico MPS 37861
1998 11 11.20936 02 50 27.28 +13 32 58.4 20.2   704 – Lincoln Laboratory ETS, New Mexico MPS 37861
1998 11 11.23139 02 50 26.00 +13 32 47.1 19.8   704 – Lincoln Laboratory ETS, New Mexico MPS 37861
1998 11 11.27503 02 50 23.46 +13 32 21.4 19.8   704 – Lincoln Laboratory ETS, New Mexico MPS 37861
2001 08 24.31488 22 28 02.91 +02 48 31.9 19.0 R 699 – Lowell Observatory-LONEOS MPS 34874
2001 08 24.34730 22 28 01.18 +02 48 19.3   699 – Lowell Observatory-LONEOS MPS 34874
2001 08 24.37481 22 27 59.69 +02 48 08.5   699 – Lowell Observatory-LONEOS MPS 34874
2001 08 24.40239 22 27 58.26 +02 47 57.1   699 – Lowell Observatory-LONEOS MPS 34874
2001 08 25.27299 22 27 14.93 +02 42 12.6 19.5   704 – Lincoln Laboratory ETS, New Mexico MPS 34874
2001 08 25.28596 22 27 14.33 +02 42 05.8 19.6   704 – Lincoln Laboratory ETS, New Mexico MPS 34874
2001 08 25.29897 22 27 13.55 +02 42 01.3 19.5   704 – Lincoln Laboratory ETS, New Mexico MPS 34874
2001 08 25.31197 22 27 12.87 +02 41 56.3 19.7   704 – Lincoln Laboratory ETS, New Mexico MPS 34874
2001 08 25.32501 22 27 12.09 +02 41 51.7 19.7   704 – Lincoln Laboratory ETS, New Mexico MPS 34874
2001 09 16.30434 22 09 57.95 -00 24 42.3 18.9   704 – Lincoln Laboratory ETS, New Mexico MPS 36116
2001 09 16.31850 22 09 57.32 -00 24 50.1 19.0   704 – Lincoln Laboratory ETS, New Mexico MPS 36116
2001 09 16.33532 22 09 56.68 -00 25 00.6 19.3   704 – Lincoln Laboratory ETS, New Mexico MPS 36116
2001 09 16.35177 22 09 56.08 -00 25 09.0 19.1   704 – Lincoln Laboratory ETS, New Mexico MPS 36116
2001 09 18.12280 22 08 54.07 -00 41 34.1 18.7 R 699 – Lowell Observatory-LONEOS MPS 43718
2001 09 18.13679 22 08 53.60 -00 41 41.2   699 – Lowell Observatory-LONEOS MPS 43718
2001 09 18.15080 22 08 53.11 -00 41 49.0   699 – Lowell Observatory-LONEOS MPS 43718
2001 09 18.16484 22 08 52.61 -00 41 58.0   699 – Lowell Observatory-LONEOS MPS 43718
2001 09 20.18019 22 07 47.59 -01 00 28.4 19.0   704 – Lincoln Laboratory ETS, New Mexico MPS 36116
2001 09 20.20834 22 07 46.67 -01 00 42.9 19.5   704 – Lincoln Laboratory ETS, New Mexico MPS 36116
2001 09 20.22327 22 07 46.18 -01 00 53.1 19.2   704 – Lincoln Laboratory ETS, New Mexico MPS 36116
2001 09 20.23791 22 07 45.68 -01 01 00.3 19.1   704 – Lincoln Laboratory ETS, New Mexico MPS 36116
2001 10 13.22699 22 04 53.79 -03 55 48.8 20.2 V 291 – LPL/Spacewatch II MPS 39282
2001 10 13.24890 22 04 54.13 -03 55 55.5 20.5 V 291 – LPL/Spacewatch II MPS 39282
2001 10 13.26934 22 04 54.46 -03 56 02.7 20.1 V 291 – LPL/Spacewatch II MPS 39282
2001 10 14.09785 22 05 09.10 -04 00 31.9 18.9   704 – Lincoln Laboratory ETS, New Mexico MPS 37861
2001 10 14.11385 22 05 09.40 -04 00 36.9 19.1   704 – Lincoln Laboratory ETS, New Mexico MPS 37861
2001 10 14.12979 22 05 09.55 -04 00 42.2 19.6   704 – Lincoln Laboratory ETS, New Mexico MPS 37861
2001 10 14.16181 22 05 10.13 -04 00 52.4 19.4   704 – Lincoln Laboratory ETS, New Mexico MPS 37861
2005 10 30.426467 08 23 04.254 +12 29 28.51 21.12 V 645 – Apache Point-Sloan Digital Sky Survey MPS 390073
2005 10 30.429939 08 23 04.474 +12 29 26.94 22.06   645 – Apache Point-Sloan Digital Sky Survey MPS 390073
2005 11 10.454607 08 32 58.887 +11 09 38.51 21.08 V 645 – Apache Point-Sloan Digital Sky Survey MPS 390074
2005 11 10.458079 08 32 59.046 +11 09 36.98 21.93   645 – Apache Point-Sloan Digital Sky Survey MPS 390074
2005 12 25.31298 08 36 27.78 +07 39 50.3 19.7 R 699 – Lowell Observatory-LONEOS MPS 156415
2005 12 25.32391 08 36 27.41 +07 39 49.6   699 – Lowell Observatory-LONEOS MPS 156415
2005 12 25.33486 08 36 26.99 +07 39 49.2   699 – Lowell Observatory-LONEOS MPS 156415
2005 12 25.34579 08 36 26.46 +07 39 47.5   699 – Lowell Observatory-LONEOS MPS 156415
2007 04 19.38801 16 24 39.99 -18 28 45.9 19.9 V G96 – Mt. Lemmon Survey MPS 206801
2007 04 19.39413 16 24 39.85 -18 28 44.3 19.8 V G96 – Mt. Lemmon Survey MPS 206801
2007 04 19.40020 16 24 39.63 -18 28 42.8 19.9 V G96 – Mt. Lemmon Survey MPS 206801
2007 04 19.40635 16 24 39.49 -18 28 41.2 19.9 V G96 – Mt. Lemmon Survey MPS 206801
2007 05 10.42666 16 10 03.43 -16 35 53.6 19.7 V G96 – Mt. Lemmon Survey MPS 208808
2007 05 10.43264 16 10 03.10 -16 35 51.5 19.7 V G96 – Mt. Lemmon Survey MPS 208808
2007 05 10.43868 16 10 02.74 -16 35 49.3 19.6 V G96 – Mt. Lemmon Survey MPS 208808
2007 05 10.44465 16 10 02.38 -16 35 47.1 19.7 V G96 – Mt. Lemmon Survey MPS 208808
2007 05 18.34481 16 02 13.10 -15 47 35.8   291 – LPL/Spacewatch II MPS 208808
2007 05 18.35190 16 02 12.64 -15 47 33.1   291 – LPL/Spacewatch II MPS 208808
2007 05 18.35742 16 02 12.29 -15 47 30.8   291 – LPL/Spacewatch II MPS 208808
2007 05 19.33979 16 01 11.34 -15 41 28.7   291 – LPL/Spacewatch II MPS 210106
2007 05 19.34530 16 01 10.97 -15 41 27.7   291 – LPL/Spacewatch II MPS 210106
2007 05 19.35158 16 01 10.57 -15 41 25.4   291 – LPL/Spacewatch II MPS 210106
2007 05 21.33586 15 59 06.50 -15 29 17.4   291 – LPL/Spacewatch II MPS 210106
2007 05 21.34193 15 59 06.12 -15 29 15.1   291 – LPL/Spacewatch II MPS 210106
2007 05 21.34575 15 59 05.87 -15 29 13.6   291 – LPL/Spacewatch II MPS 210106
2007 06 09.27417 15 40 17.11 -13 44 25.8 20.2 V 691 – Steward Observatory, Kitt Peak-Spacewatch MPS 211014
2007 06 09.29184 15 40 16.15 -13 44 20.5 19.8 V 691 – Steward Observatory, Kitt Peak-Spacewatch MPS 211014
2007 06 09.30951 15 40 15.18 -13 44 15.2 19.9 V 691 – Steward Observatory, Kitt Peak-Spacewatch MPS 211014
2007 06 13.28641 15 36 57.57 -13 26 46.7 20.1 V 691 – Steward Observatory, Kitt Peak-Spacewatch MPS 211014
2007 06 13.30414 15 36 56.69 -13 26 42.4 19.9 V 691 – Steward Observatory, Kitt Peak-Spacewatch MPS 211014
2007 06 13.32180 15 36 55.80 -13 26 38.1 20.0 V 691 – Steward Observatory, Kitt Peak-Spacewatch MPS 211014
2008 11 07.38623 05 26 26.12 +17 19 47.8 19.1 V G96 – Mt. Lemmon Survey MPS 264453
2008 11 07.39293 05 26 25.98 +17 19 45.2 19.1 V G96 – Mt. Lemmon Survey MPS 264453
2008 11 07.39964 05 26 25.72 +17 19 42.7 19.1 V G96 – Mt. Lemmon Survey MPS 264453
2008 11 07.40635 05 26 25.51 +17 19 40.2 19.1 V G96 – Mt. Lemmon Survey MPS 264453
2008 11 18.39630 05 18 56.97 +16 12 01.4 20.1   704 – Lincoln Laboratory ETS, New Mexico MPS 266211
2008 11 18.42168 05 18 55.53 +16 11 53.7 19.9   704 – Lincoln Laboratory ETS, New Mexico MPS 266211
2008 11 18.43441 05 18 54.81 +16 11 51.0 19.8   704 – Lincoln Laboratory ETS, New Mexico MPS 266211
2008 11 20.33576 05 17 14.34 +16 00 12.9 19.3 V 691 – Steward Observatory, Kitt Peak-Spacewatch MPS 266211
2008 11 20.35339 05 17 13.33 +16 00 06.4 19.3 V 691 – Steward Observatory, Kitt Peak-Spacewatch MPS 266211
2008 11 20.37103 05 17 12.30 +15 59 59.8 20.4 V 691 – Steward Observatory, Kitt Peak-Spacewatch MPS 266211
2008 11 23.31556 05 14 25.28 +15 42 16.5 19.4   704 – Lincoln Laboratory ETS, New Mexico MPS 267261
2008 11 23.32848 05 14 24.56 +15 42 12.3 19.6   704 – Lincoln Laboratory ETS, New Mexico MPS 267261
2008 11 23.34086 05 14 23.75 +15 42 08.2 20.3   704 – Lincoln Laboratory ETS, New Mexico MPS 267261
2008 11 23.35326 05 14 22.96 +15 42 03.5 19.6   704 – Lincoln Laboratory ETS, New Mexico MPS 267261
2008 11 23.36603 05 14 22.17 +15 41 58.5 19.6   704 – Lincoln Laboratory ETS, New Mexico MPS 267261
2008 11 30.25691 05 07 11.88 +15 02 18.8 19.3   704 – Lincoln Laboratory ETS, New Mexico MPS 268627
2008 11 30.26944 05 07 11.04 +15 02 14.8 19.5   704 – Lincoln Laboratory ETS, New Mexico MPS 268627
2008 11 30.28211 05 07 10.15 +15 02 10.7 18.9   704 – Lincoln Laboratory ETS, New Mexico MPS 268627
